Change the Weather History Date:

Tuesday, January 1, 2013

  Actual Average Record
Temperature  
Mean Temperature 51 °F -  
Max Temperature 59 °F 61 °F 78 °F (2006)
Min Temperature 42 °F 41 °F 30 °F (2001)
Degree Days  
Heating Degree Days 14    
Growing Degree Days 1 (Base 50)    
Moisture  
Dew Point 53 °F    
Average Humidity 95    
Maximum Humidity 100    
Minimum Humidity 67    
Precipitation  
Precipitation 0.21 in - - ()
Sea Level Pressure  
Sea Level Pressure 30.05 in    
Wind  
Wind Speed 10 mph (North)    
Max Wind Speed 20 mph    
Max Gust Speed 25 mph    
Visibility 10 miles    
Events Rain    
Averages and records for this station are not official NWS values.
T = Trace of Precipitation, MM = Missing Value Source: NWS Daily Summary

Daily Weather History Graph

Daily Weather History Graph

Search for Another Location

Airport or City:

Trip Planner

Search our weather history database for the weather conditions in past years. The results will help you decide how hot, cold, wet, or windy it might be!

Date:

Astronomy

Jan. 01, 2013 Rise Set
Actual Time 7:28 AM CST 5:45 PM CST
Civil Twilight 7:01 AM CST 6:11 PM CST
Nautical Twilight 6:32 AM CST 6:41 PM CST
Astronomical Twilight 6:03 AM CST 7:10 PM CST
Moon 9:56 PM CST 10:00 AM CST
Length of Visible Light 11h 10m
Length of Day
10h 17m
Waning Gibbous, 83% of the Moon is Illuminated
Jan 1
Waning Gibbous
Jan 4
Last Quarter
Jan 11
New
Jan 18
First Quarter
Jan 26
Full

Hourly Weather History & Observations

Time (CST) Temp. Windchill Dew Point Humidity Pressure Visibility Wind Dir Wind Speed Gust Speed Precip Events Conditions
12:06 AM 59.0 °F - 59.0 °F 100% 29.96 in 10.0 mi North 6.9 mph - N/A   Overcast
12:27 AM 59.0 °F - 59.0 °F 100% 29.96 in 10.0 mi NNE 5.8 mph - N/A   Light Drizzle
12:45 AM 59.0 °F - 59.0 °F 100% 29.96 in 10.0 mi NNE 8.1 mph - N/A   Overcast
12:47 AM 59.0 °F - 59.0 °F 100% 29.96 in 10.0 mi NNE 9.2 mph - N/A   Light Drizzle
12:55 AM 59.4 °F - 59.4 °F 100% 29.96 in 10.0 mi NNE 5.8 mph - 0.00 in   Light Drizzle
1:10 AM 59.0 °F - 59.0 °F 100% 29.96 in 10.0 mi NE 4.6 mph - N/A   Drizzle
1:11 AM 59.0 °F - 59.0 °F 100% 29.96 in 10.0 mi NE 3.5 mph - N/A   Light Drizzle
1:20 AM 59.0 °F - 59.0 °F 100% 29.96 in 9.0 mi North 4.6 mph - N/A   Light Drizzle
1:32 AM 59.0 °F - 59.0 °F 100% 29.96 in 7.0 mi NNE 8.1 mph - N/A   Light Drizzle
1:41 AM 59.0 °F - 59.0 °F 100% 29.96 in 8.0 mi North 9.2 mph - N/A   Light Drizzle
1:43 AM 59.0 °F - 59.0 °F 100% 29.96 in 8.0 mi NNE 10.4 mph - N/A   Light Drizzle
1:52 AM 59.0 °F - 59.0 °F 100% 29.95 in 10.0 mi NNE 9.2 mph - N/A   Overcast
1:55 AM 59.0 °F - 59.0 °F 100% 29.95 in 10.0 mi NNE 9.2 mph - 0.00 in   Overcast
2:02 AM 59.0 °F - 59.0 °F 100% 29.95 in 10.0 mi NNE 8.1 mph - N/A   Light Drizzle
2:16 AM 59.0 °F - 59.0 °F 100% 29.94 in 10.0 mi NNE 8.1 mph - N/A   Overcast
2:44 AM 59.0 °F - 59.0 °F 100% 29.95 in 10.0 mi NNE 6.9 mph - N/A   Overcast
2:50 AM 59.0 °F - 59.0 °F 100% 29.96 in 10.0 mi NNE 8.1 mph - N/A   Light Drizzle
2:55 AM 58.6 °F - 58.6 °F 100% 29.95 in 10.0 mi North 9.2 mph - 0.01 in   Light Drizzle
3:08 AM 59.0 °F - 59.0 °F 100% 29.96 in 10.0 mi North 8.1 mph - N/A   Overcast
3:15 AM 59.0 °F - 59.0 °F 100% 29.96 in 10.0 mi North 9.2 mph - N/A   Light Drizzle
3:32 AM 59.0 °F - 59.0 °F 100% 29.97 in 10.0 mi NNE 11.5 mph - N/A   Light Drizzle
3:33 AM 59.0 °F - 59.0 °F 100% 29.97 in 10.0 mi NNE 12.7 mph - N/A   Light Drizzle
3:35 AM 59.0 °F - 59.0 °F 100% 29.97 in 10.0 mi North 12.7 mph - N/A   Light Drizzle
3:36 AM 59.0 °F - 59.0 °F 100% 29.97 in 10.0 mi NNE 12.7 mph - N/A   Overcast
3:48 AM 59.0 °F - 59.0 °F 100% 29.98 in 9.0 mi North 8.1 mph - N/A Rain Light Rain
3:52 AM 59.0 °F - 59.0 °F 100% 29.98 in 9.0 mi North 6.9 mph - N/A Rain Light Rain
3:55 AM 58.3 °F - 58.3 °F 100% 29.99 in 10.0 mi North 8.1 mph - 0.00 in Rain Light Rain
4:08 AM 57.2 °F - 57.2 °F 100% 29.98 in 10.0 mi North 10.4 mph - N/A Rain Light Rain
4:10 AM 57.2 °F - 57.2 °F 100% 29.98 in 10.0 mi North 11.5 mph - N/A Rain Light Rain
4:13 AM 57.2 °F - 57.2 °F 100% 29.98 in 10.0 mi North 19.6 mph - N/A Rain Rain
4:14 AM 57.2 °F - 57.2 °F 100% 29.98 in 10.0 mi North 19.6 mph - N/A Rain Rain
4:15 AM 57.2 °F - 57.2 °F 100% 29.98 in 10.0 mi North 18.4 mph 21.9 mph N/A Rain Light Rain
4:19 AM 57.2 °F - 57.2 °F 100% 29.98 in 10.0 mi North 18.4 mph 25.3 mph N/A Rain Light Rain
4:20 AM 57.2 °F - 57.2 °F 100% 29.98 in 10.0 mi North 19.6 mph 25.3 mph N/A Rain Light Rain
4:23 AM 57.2 °F - 57.2 °F 100% 29.98 in 10.0 mi North 17.3 mph 25.3 mph N/A Rain Light Rain
4:27 AM 57.2 °F - 57.2 °F 100% 29.98 in 10.0 mi North 16.1 mph 25.3 mph N/A Rain Light Rain
4:30 AM 57.2 °F - 57.2 °F 100% 29.98 in 9.0 mi North 11.5 mph 24.2 mph N/A Rain Light Rain
4:33 AM 57.2 °F - 57.2 °F 100% 29.98 in 7.0 mi North 9.2 mph - N/A Rain Light Rain
4:38 AM 55.4 °F - 55.4 °F 100% 29.98 in 5.0 mi North 10.4 mph - N/A Rain Rain
4:39 AM 55.4 °F - 55.4 °F 100% 29.98 in 5.0 mi North 11.5 mph - N/A Rain Rain
4:40 AM 55.4 °F - 55.4 °F 100% 29.99 in 4.0 mi North 11.5 mph - N/A Rain Rain
4:41 AM 55.4 °F - 55.4 °F 100% 29.99 in 4.0 mi North 11.5 mph - N/A Rain Rain
4:42 AM 55.4 °F - 55.4 °F 100% 29.99 in 5.0 mi North 11.5 mph - N/A Rain Rain
4:43 AM 55.4 °F - 55.4 °F 100% 29.99 in 5.0 mi North 11.5 mph - N/A Rain Rain
4:55 AM 55.6 °F - 55.4 °F 99% 29.99 in 10.0 mi North 12.7 mph - 0.06 in Rain Light Rain
5:20 AM 55.4 °F - 55.4 °F 100% 29.99 in 10.0 mi NNW 10.4 mph - N/A Rain Light Rain
5:27 AM 55.4 °F - 55.4 °F 100% 29.99 in 10.0 mi NNW 12.7 mph - N/A   Light Drizzle
5:40 AM 55.4 °F - 55.4 °F 100% 30.00 in 10.0 mi North 10.4 mph - N/A Rain Light Rain
5:55 AM 54.7 °F - 54.5 °F 99% 30.01 in 10.0 mi NNW 10.4 mph - 0.02 in   Light Drizzle
5:57 AM 55.4 °F - 53.6 °F 94% 30.01 in 10.0 mi NNW 11.5 mph - N/A   Overcast
6:02 AM 55.4 °F - 53.6 °F 94% 30.01 in 10.0 mi North 10.4 mph - N/A Rain Light Rain
6:19 AM 53.6 °F - 53.6 °F 100% 30.01 in 10.0 mi North 8.1 mph - N/A Rain Light Rain
6:23 AM 53.6 °F - 53.6 °F 100% 30.01 in 10.0 mi North 8.1 mph - N/A Rain Light Rain
6:24 AM 53.6 °F - 53.6 °F 100% 30.01 in 10.0 mi North 8.1 mph - N/A Rain Light Rain
6:26 AM 53.6 °F - 53.6 °F 100% 30.01 in 10.0 mi North 9.2 mph - N/A Rain Light Rain
6:28 AM 53.6 °F - 53.6 °F 100% 30.02 in 10.0 mi North 10.4 mph - N/A Rain Light Rain
6:38 AM 53.6 °F - 53.6 °F 100% 30.02 in 10.0 mi North 10.4 mph - N/A Rain Light Rain
6:40 AM 53.6 °F - 53.6 °F 100% 30.02 in 10.0 mi North 9.2 mph - N/A Rain Light Rain
6:55 AM 54.1 °F - 54.0 °F 99% 30.03 in 10.0 mi North 9.2 mph - 0.10 in Rain Light Rain
7:01 AM 53.6 °F - 53.6 °F 100% 30.03 in 10.0 mi NNE 9.2 mph - N/A Rain Light Rain
7:03 AM 53.6 °F - 53.6 °F 100% 30.03 in 10.0 mi NNE 9.2 mph - N/A Rain Light Rain
7:09 AM 53.6 °F - 53.6 °F 100% 30.04 in 10.0 mi NNE 12.7 mph - N/A Rain Light Rain
7:13 AM 53.6 °F - 53.6 °F 100% 30.04 in 10.0 mi NNE 11.5 mph - N/A Rain Light Rain
7:23 AM 53.6 °F - 53.6 °F 100% 30.05 in 10.0 mi NNE 15.0 mph 20.7 mph N/A   Light Drizzle
7:27 AM 53.6 °F - 53.6 °F 100% 30.05 in 10.0 mi NNE 15.0 mph 21.9 mph N/A   Overcast
7:30 AM 53.6 °F - 53.6 °F 100% 30.05 in 10.0 mi NNE 15.0 mph - N/A   Overcast
7:32 AM 51.8 °F - 51.8 °F 100% 30.05 in 10.0 mi NE 16.1 mph 21.9 mph N/A   Light Drizzle
7:33 AM 51.8 °F - 51.8 °F 100% 30.05 in 10.0 mi NE 16.1 mph 21.9 mph N/A   Overcast
7:49 AM 51.8 °F - 51.8 °F 100% 30.07 in 10.0 mi NNE 12.7 mph - N/A   Overcast
7:55 AM 51.1 °F - 50.7 °F 99% 30.07 in 10.0 mi NNE 12.7 mph - 0.02 in   Overcast
7:56 AM 51.8 °F - 50.0 °F 94% 30.08 in 10.0 mi NNE 12.7 mph - N/A Rain Light Rain
7:59 AM 51.8 °F - 50.0 °F 94% 30.08 in 10.0 mi NNE 13.8 mph - N/A Rain Light Rain
8:06 AM 50.0 °F - 50.0 °F 100% 30.08 in 10.0 mi NNE 11.5 mph - N/A   Overcast
8:10 AM 50.0 °F - 50.0 °F 100% 30.09 in 10.0 mi NNE 11.5 mph - N/A   Light Drizzle
8:24 AM 50.0 °F - 50.0 °F 100% 30.09 in 10.0 mi NNE 12.7 mph - N/A   Overcast
8:55 AM 50.2 °F - 50.0 °F 99% 30.10 in 10.0 mi North 12.7 mph - 0.00 in   Overcast
9:55 AM 50.2 °F - 50.0 °F 99% 30.12 in 10.0 mi North 13.8 mph - N/A   Overcast
9:57 AM 50.0 °F - 50.0 °F 100% 30.13 in 10.0 mi NNE 15.0 mph - N/A   Overcast
10:08 AM 50.0 °F - 50.0 °F 100% 30.14 in 10.0 mi North 16.1 mph - N/A   Overcast
10:09 AM 50.0 °F - 50.0 °F 100% 30.14 in 10.0 mi North 15.0 mph - N/A   Overcast
10:10 AM 50.0 °F - 50.0 °F 100% 30.15 in 10.0 mi North 15.0 mph - N/A   Overcast
10:19 AM 50.0 °F - 50.0 °F 100% 30.14 in 10.0 mi NNE 16.1 mph - N/A   Overcast
10:39 AM 51.8 °F - 51.8 °F 100% 30.15 in 10.0 mi North 13.8 mph - N/A   Overcast
10:40 AM 51.8 °F - 51.8 °F 100% 30.15 in 10.0 mi North 12.7 mph - N/A   Overcast
10:55 AM 51.1 °F - 50.9 °F 99% 30.15 in 10.0 mi North 13.8 mph - N/A   Overcast
10:57 AM 51.8 °F - 50.0 °F 94% 30.15 in 10.0 mi NNE 13.8 mph - N/A   Overcast
11:32 AM 51.8 °F - 50.0 °F 94% 30.16 in 10.0 mi North 13.8 mph - N/A   Overcast
11:55 AM 52.7 °F - 48.2 °F 85% 30.16 in 10.0 mi North 11.5 mph - N/A   Overcast
12:04 PM 53.6 °F - 48.2 °F 82% 30.15 in 10.0 mi North 15.0 mph - N/A   Mostly Cloudy
12:22 PM 53.6 °F - 46.4 °F 77% 30.15 in 10.0 mi North 13.8 mph 20.7 mph N/A   Mostly Cloudy
12:55 PM 53.4 °F - 46.2 °F 77% 30.14 in 10.0 mi North 10.4 mph - N/A   Overcast
1:01 PM 53.6 °F - 46.4 °F 77% 30.14 in 10.0 mi North 13.8 mph 18.4 mph N/A   Overcast
1:25 PM 51.8 °F - 46.4 °F 82% 30.12 in 10.0 mi North 16.1 mph - N/A   Overcast
1:38 PM 53.6 °F - 46.4 °F 77% 30.13 in 10.0 mi North 16.1 mph - N/A   Scattered Clouds
1:42 PM 53.6 °F - 46.4 °F 77% 30.12 in 10.0 mi North 16.1 mph - N/A   Mostly Cloudy
1:44 PM 53.6 °F - 46.4 °F 77% 30.12 in 10.0 mi North 16.1 mph - N/A   Mostly Cloudy
1:55 PM 53.8 °F - 45.5 °F 74% 30.12 in 10.0 mi North 15.0 mph - N/A   Scattered Clouds
2:17 PM 53.6 °F - 44.6 °F 72% 30.13 in 10.0 mi NNE 11.5 mph - N/A   Mostly Cloudy
2:53 PM 53.6 °F - 44.6 °F 72% 30.13 in 10.0 mi North 12.7 mph - N/A   Mostly Cloudy
2:55 PM 53.6 °F - 44.4 °F 71% 30.13 in 10.0 mi North 12.7 mph - N/A   Scattered Clouds
2:58 PM 53.6 °F - 44.6 °F 72% 30.13 in 10.0 mi North 13.8 mph - N/A   Mostly Cloudy
3:18 PM 55.4 °F - 44.6 °F 67% 30.13 in 10.0 mi North 17.3 mph - N/A   Scattered Clouds
3:55 PM 52.2 °F - 43.9 °F 73% 30.14 in 10.0 mi North 15.0 mph - N/A   Clear
4:55 PM 49.3 °F - 42.6 °F 78% 30.16 in 10.0 mi North 15.0 mph - N/A   Partly Cloudy
5:17 PM 48.2 °F - 41.0 °F 76% 30.16 in 10.0 mi North 10.4 mph - N/A   Mostly Cloudy
5:29 PM 48.2 °F - 41.0 °F 76% 30.17 in 10.0 mi North 11.5 mph - N/A   Scattered Clouds
5:55 PM 46.9 °F - 41.4 °F 81% 30.17 in 10.0 mi North 9.2 mph - N/A   Clear
6:55 PM 45.7 °F 44.4 °F 41.9 °F 87% 30.19 in 10.0 mi North 3.5 mph - N/A   Clear
7:55 PM 44.8 °F 42.4 °F 41.9 °F 90% 30.21 in 10.0 mi North 4.6 mph - N/A   Clear
8:55 PM 43.9 °F 39.3 °F 42.4 °F 95% 30.22 in 10.0 mi North 8.1 mph - N/A   Clear
9:55 PM 44.4 °F 40.5 °F 41.7 °F 90% 30.22 in 10.0 mi NNE 6.9 mph - N/A   Clear
10:55 PM 43.5 °F 38.3 °F 39.9 °F 87% 30.23 in 10.0 mi NNE 9.2 mph - N/A   Clear
11:55 PM 42.8 °F 38.0 °F 39.9 °F 90% 30.24 in 10.0 mi North 8.1 mph - N/A   Clear